Regional Weather Roundup
Issued by NWS

Home | Current Version | Previous Version | Graphics & Text | Print | Product List | Glossary On
Versions: 1 2 3 4 5 6 7 8 9 10 11 12 13 14 15 16 17 18 19 20 21 22 23 24 25 26 27 28 29 30 31 32 33 34 35 36 37 38 39 40 41 42 43 44 45 46 47 48 49 50
000
ASUS43 KTOP 272108
RWRKS

WEATHER ROUNDUP FOR KANSAS
NATIONAL WEATHER SERVICE GOODLAND KS
400 PM CDT FRI MAY 27 2016

NOTE:  "FAIR" INDICATES FEW OR NO CLOUDS BELOW 12,000 FEET WITH NO
SIGNIFICANT WEATHER AND/OR OBSTRUCTIONS TO VISIBILITY.

KSZ001>006-013>018-027>032-041>047-272200-
NORTHWEST KANSAS

CITY           SKY/WX    TMP DP  RH WIND       PRES   REMARKS
GOODLAND       CLOUDY    61  55  81 NE15G23   29.74S
HAYS           PTSUNNY   45 N/A N/A E8        29.66F
HILL CITY      CLOUDY    62  59  90 NE10      29.72S
RUSSELL        PTSUNNY   73  64  73 NE7       29.63F
$$

KSZ061>065-074>080-084>089-272200-
SOUTHWEST KANSAS

CITY           SKY/WX    TMP DP  RH WIND       PRES   REMARKS
DODGE CITY     PTSUNNY   73  47  39 SE5       29.66F
ELKHART          N/A     65  44  46 W16         N/A
GARDEN CITY    MOSUNNY   74  43  32 S14       29.65F
GREAT BEND     MOSUNNY   73  57  56 SW13      29.64F
LIBERAL        PTSUNNY   72  43  35 W17G29    29.70F
PRATT          PTSUNNY   72  55  53 W6        29.67F
$$

KSZ066>073-081>083-090>101-272200-
SOUTHEAST KANSAS

CITY           SKY/WX    TMP DP  RH WIND       PRES   REMARKS
CHANUTE        CLOUDY    74  68  81 S9        29.71F HAZE
COFFEYVILLE    CLOUDY    76  68  76 SE12      29.70F
HUTCHINSON     CLOUDY    79  67  66 SE10G17   29.65F
MEDICINE LODGE   N/A     79  54  41 SW9       29.64F
NEWTON         CLOUDY    63  55  77 SE17      29.71F THUNDER
PARSONS        CLOUDY    74  67  78 VRB6      29.72F
WICHITA INTL   TSTM      70  63  78 W3        29.65F
WICHITA JABRA  CLOUDY    73  66  78 SE15      29.65F
WICHITA MCCONL PTSUNNY   75  66  71 SE15G21   29.64F
WINFIELD       CLOUDY    78  64  61 SE16G23   29.65F
$$

KSZ007>012-019>026-033>040-048>060-102>105-272200-
NORTHEAST KANSAS

CITY           SKY/WX    TMP DP  RH WIND       PRES   REMARKS
CONCORDIA      PTSUNNY   76  64  66 S10       29.67F
EMPORIA        CLOUDY    72  65  78 S14       29.70F
LAWRENCE       CLOUDY    71  67  87 S7        29.72F
MANHATTAN      PTSUNNY   78  65  63 SE8       29.68F
MARYSVILLE     PTSUNNY   75  63  64 SE6       29.70F
OLATHE IND     CLOUDY    73  65  75 S7        29.73F
OLATHE EXE     PTSUNNY   74  67  78 S8        29.73F
SALINA         PTSUNNY   77  63  61 SE10      29.65F
TOPEKA BILLARD CLOUDY    74  66  76 SE7       29.71F
TOPEKA FORBES  CLOUDY    74  66  76 S8        29.71F
$$




USA.gov is the U.S. government's official web portal to all federal, state and local government web resources and services.